Regional Weather Roundup
Issued by NWS Green Bay, WI

Home | Current Version | Previous Version | Graphics & Text | Print | Product List | Glossary Off
Versions: 1 2 3 4 5 6 7 8 9 10 11 12 13 14 15 16 17 18 19 20 21 22 23 24 25 26 27 28 29 30 31 32 33 34 35 36 37 38 39 40 41 42 43 44 45 46 47 48 49 50

000
ASUS43 KGRB 300010
RWRGRB

NORTH-CENTRAL AND NORTHEAST WISCONSIN REGIONAL WEATHER ROUNDUP
NATIONAL WEATHER SERVICE GREEN BAY WI
600 PM CST THU JAN 29 2015

WIZ005-009-010>012-018-019-300100-
NORTH CENTRAL WISCONSIN

CITY           SKY/WX    TMP DP  RH WIND       PRES   REMARKS
IRONWOOD       CLOUDY    18  10  73 N20G26    30.24R WCI   1
MANITOWISH WTR LGT SNOW  18  13  82 N15       30.20R WCI   3
ARBOR VITAE    MOCLDY    20  14  77 N15       30.19R WCI   6
EAGLE RIVER    LGT SNOW  19  12  77 N10       30.16R WCI   7
LAND O LAKES   LGT SNOW  19  15  86 N12       30.17R WCI   6
RHINELANDER    LGT SNOW  19  13  77 NW9       30.18R WCI   8
PHILLIPS       FLURRIES  20  14  76 NW12G18   30.22R WCI   8
ANTIGO         CLOUDY    20  14  76 N15G28    30.17R WCI   7
TOMAHAWK       CLOUDY    22  11  64 N13G18    30.20R WCI  10
MERRILL        LGT SNOW  23  14  67 N13G28    30.19R
$$

WIZ013-073-300100-
NORTHEAST WISCONSIN

CITY           SKY/WX    TMP DP  RH WIND       PRES   REMARKS
IRON MOUNTAIN  CLOUDY    19  12  74 NW22      30.14R WCI   2
MARINETTE      MOCLDY    25   9  50 N16G32    30.15R
OCONTO         CLOUDY    27  15  59 MISG      30.16R
$$

WIZ017-030-035>037-045-300100-
CENTRAL WISCONSIN

CITY           SKY/WX    TMP DP  RH WIND       PRES   REMARKS
MEDFORD        CLOUDY    23  14  68 N18       30.20R WCI   9
WAUSAU         CLOUDY    26  14  60 NW15G28   30.17R
MOSINEE        LGT SNOW  27  18  69 N21       30.18R
MARSHFIELD     CLOUDY    27  16  63 N18       30.20R
WISC RAPIDS    CLOUDY    29  16  58 NW18G31   30.20R
STEVENS POINT  CLOUDY    27  14  56 NW12G24   30.18R
WAUPACA        CLOUDY    32  17  53 NW16G22   30.16R
SHAWANO        CLOUDY    29  15  56 NW15G28   30.18R
CLINTONVILLE   CLOUDY    30  18  59 N16G23    30.16R
$$

WIZ038-039-048-051-300100-
FOX VALLEY

CITY           SKY/WX    TMP DP  RH WIND       PRES   REMARKS
NWS GREEN BAY  CLOUDY    29  15  56 NW20G31   30.15R
APPLETON       MOCLDY    28  18  64 N23G31    30.13R
OSHKOSH        CLOUDY    31  19  61 N18       30.14R
FOND DU LAC    CLOUDY    33  19  56 N12       30.13R
$$

WIZ022-050-052-300100-
EAST CENTRAL WISCONSIN

CITY           SKY/WX    TMP DP  RH WIND       PRES   REMARKS
STURGEON BAY   CLOUDY    27  16  63 N25G32    30.14R
MANITOWOC      CLOUDY    31  20  63 N20G26    30.12R
SHEBOYGAN      CLOUDY    32  19  58 N15G26    30.11R
$$

LMZ563-521-522-541>543-300100-
LAKESHORE

STATION/POSITION TIME  TEMP    WIND        PRES    VSBY  WAVE
                       AIR SEA DIR/SP/G                  HT/PER
                 (UTC) (F)     (DEG/KT/KT) (MB)    (MI)  (FT/S)
SHEBOYGAN LKSHOR 0000   33     340/ 16/ 19 1021.0R
KEWAUNEE LKSHORE 0000   30     340/ 12/ 21 1018.7R
NORTHPORT PIER   0000   22     340/ 26/ 28 1020.7R
SISTER BAY LKSHO 0000   23      10/ 27/ 33   N/A
CHAMBERS ISLAND  0000   23     320/ 28/ 33 1020.3S
MENOMINEE LKSHOR 0000   24     310/ 28     1021.0R
$$


USA.gov is the U.S. government's official web portal to all federal, state and local government web resources and services.